Location: Taukkyan
(23.1052°N, 94.0030°E)
Time: 10:50:01
(UTC+00:00)

Milstar 3 Cent rocket - Pass Details

Date: 06 July 2020
Orbit: 706 x 5147 km, 28.3° (Epoch: 14 August)

Event Time Altitude Azimuth Distance (km) Brightness Sun altitude
Rises 14:13:37 0° 273° (W) 3,080 6.0 -20.5°
Reaches altitude 10° 14:16:07 10° 258° (WSW) 2,223 4.9 -21.0°
Maximum altitude 14:20:07 25° 202° (SSW) 1,671 3.6 -21.7°
Enters shadow 14:21:14 23° 184° (S) 1,822 3.6 -21.9°
